Location: Buchberg
(46.9333°N, 15.8500°E)
Time: 09:48:39
(UTC+00:00)

SL-8 R/B - Pass Details

Date: 14 July 2020
Orbit: 656 x 668 km, 48.4° (Epoch: 07 August)

Event Time Altitude Azimuth Distance (km) Brightness Sun altitude
Exits shadow 01:46:36 - 264° (W) 2,272 6.0 -12.1°
Reaches altitude 10° 01:47:06 10° 264° (W) 2,083 5.8 -12.1°
Maximum altitude 01:51:55 78° 351° (N) 680 3.8 -11.5°
Drops below altitude 10° 01:56:43 10° 79° (ENE) 2,078 7.1 -11.0°
Sets 01:59:04 0° 80° (E) 2,989 8.0 -10.7°
